Year,Month,Day,Hour,Minute,Value (Times are PST for temperature in C)
2013,03,17,00,00,-4.40
2013,03,17,00,01,-4.40
2013,03,17,00,02,-4.40
2013,03,17,00,03,-4.40
2013,03,17,00,04,-4.30
2013,03,17,00,05,-4.40
2013,03,17,00,06,-4.40
2013,03,17,00,07,-4.40
2013,03,17,00,08,-4.40
2013,03,17,00,09,-4.30
2013,03,17,00,10,-4.30
2013,03,17,00,11,-4.30
2013,03,17,00,12,-4.30
2013,03,17,00,13,-4.30
2013,03,17,00,14,-4.30
2013,03,17,00,15,-4.30
2013,03,17,00,16,-4.40
2013,03,17,00,17,-4.40
2013,03,17,00,18,-4.50
2013,03,17,00,19,-4.50
2013,03,17,00,20,-4.50
2013,03,17,00,21,-4.60
2013,03,17,00,22,-4.70
2013,03,17,00,23,-4.80
2013,03,17,00,24,-4.90
2013,03,17,00,25,-5.00
2013,03,17,00,26,-5.10
2013,03,17,00,27,-5.20
2013,03,17,00,28,-5.20
2013,03,17,00,29,-5.30
2013,03,17,00,30,-5.40
2013,03,17,00,31,-5.40
2013,03,17,00,32,-5.50
2013,03,17,00,33,-5.60
2013,03,17,00,34,-5.70
2013,03,17,00,35,-5.70
2013,03,17,00,36,-5.80
2013,03,17,00,37,-5.80
2013,03,17,00,38,-5.90
2013,03,17,00,39,-5.90
2013,03,17,00,40,-6.00
2013,03,17,00,41,-6.00
2013,03,17,00,42,-6.10
2013,03,17,00,43,-6.10
2013,03,17,00,44,-6.20
2013,03,17,00,45,-6.20
2013,03,17,00,46,-6.20
2013,03,17,00,47,-6.30
2013,03,17,00,48,-6.20
2013,03,17,00,49,-6.20
2013,03,17,00,50,-6.20
2013,03,17,00,51,-6.20
2013,03,17,00,52,-6.10
2013,03,17,00,53,-6.10
2013,03,17,00,54,-6.10
2013,03,17,00,55,-6.20
2013,03,17,00,56,-6.20
2013,03,17,00,57,-6.20
2013,03,17,00,58,-6.30
2013,03,17,00,59,-6.30
2013,03,17,01,00,-6.40
2013,03,17,01,01,-6.40
2013,03,17,01,02,-6.50
2013,03,17,01,03,-6.50
2013,03,17,01,04,-6.50
2013,03,17,01,05,-6.50
2013,03,17,01,06,-6.50
2013,03,17,01,07,-6.40
2013,03,17,01,08,-6.40
2013,03,17,01,09,-6.40
2013,03,17,01,10,-6.40
2013,03,17,01,11,-6.50
2013,03,17,01,12,-6.50
2013,03,17,01,13,-6.60
2013,03,17,01,14,-6.70
2013,03,17,01,15,-6.70
2013,03,17,01,16,-6.80
2013,03,17,01,17,-6.80
2013,03,17,01,18,-6.90
2013,03,17,01,19,-7.00
2013,03,17,01,20,-7.00
2013,03,17,01,21,-7.00
2013,03,17,01,22,-7.10
2013,03,17,01,23,-7.10
2013,03,17,01,24,-7.20
2013,03,17,01,25,-7.20
2013,03,17,01,26,-7.30
2013,03,17,01,27,-7.30
2013,03,17,01,28,-7.40
2013,03,17,01,29,-7.50
2013,03,17,01,30,-7.50
2013,03,17,01,31,-7.50
2013,03,17,01,32,-7.60
2013,03,17,01,33,-7.60
2013,03,17,01,34,-7.60
2013,03,17,01,35,-7.60
2013,03,17,01,36,-7.50
2013,03,17,01,37,-7.50
2013,03,17,01,38,-7.50
2013,03,17,01,39,-7.50
2013,03,17,01,40,-7.50
2013,03,17,01,41,-7.50
2013,03,17,01,42,-7.50
2013,03,17,01,43,-7.60
2013,03,17,01,44,-7.60
2013,03,17,01,45,-7.70
2013,03,17,01,46,-7.80
2013,03,17,01,47,-7.90
2013,03,17,01,48,-8.00
2013,03,17,01,49,-8.00
2013,03,17,01,50,-8.10
2013,03,17,01,51,-8.10
2013,03,17,01,52,-8.20
2013,03,17,01,53,-8.20
2013,03,17,01,54,-8.30
2013,03,17,01,55,-8.30
2013,03,17,01,56,-8.40
2013,03,17,01,57,-8.40
2013,03,17,01,58,-8.50
2013,03,17,01,59,-8.60
2013,03,17,02,00,-8.60
2013,03,17,02,01,-8.60
2013,03,17,02,02,-8.70
2013,03,17,02,03,-8.70
2013,03,17,02,04,-8.80
2013,03,17,02,05,-8.80
2013,03,17,02,06,-8.90
2013,03,17,02,07,-8.90
2013,03,17,02,08,-9.00
2013,03,17,02,09,-9.00
2013,03,17,02,10,-9.00
2013,03,17,02,11,-9.00
2013,03,17,02,12,-9.00
2013,03,17,02,13,-9.10
2013,03,17,02,14,-9.10
2013,03,17,02,15,-9.10
2013,03,17,02,16,-9.10
2013,03,17,02,17,-9.10
2013,03,17,02,18,-9.10
2013,03,17,02,19,-9.20
2013,03,17,02,20,-9.20
2013,03,17,02,21,-9.20
2013,03,17,02,22,-9.30
2013,03,17,02,23,-9.30
2013,03,17,02,24,-9.30
2013,03,17,02,25,-9.40
2013,03,17,02,26,-9.40
2013,03,17,02,27,-9.40
2013,03,17,02,28,-9.40
2013,03,17,02,29,-9.50
2013,03,17,02,30,-9.50
2013,03,17,02,31,-9.50
2013,03,17,02,32,-9.60
2013,03,17,02,33,-9.60
2013,03,17,02,34,-9.70
2013,03,17,02,35,-9.70
2013,03,17,02,36,-9.70
2013,03,17,02,37,-9.80
2013,03,17,02,38,-9.80
2013,03,17,02,39,-9.80
2013,03,17,02,40,-9.90
2013,03,17,02,41,-9.90
2013,03,17,02,42,-9.90
2013,03,17,02,43,-10.00
2013,03,17,02,44,-10.00
2013,03,17,02,45,-10.00
2013,03,17,02,46,-10.10
2013,03,17,02,47,-10.10
2013,03,17,02,48,-10.20
2013,03,17,02,49,-10.20
2013,03,17,02,50,-10.30
2013,03,17,02,51,-10.30
2013,03,17,02,52,-10.30
2013,03,17,02,53,-10.30
2013,03,17,02,54,-10.40
2013,03,17,02,55,-10.40
2013,03,17,02,56,-10.40
2013,03,17,02,57,-10.50
2013,03,17,02,58,-10.50
2013,03,17,02,59,-10.50
2013,03,17,03,00,-10.50
2013,03,17,03,01,-10.50
2013,03,17,03,02,-10.60
2013,03,17,03,03,-10.60
2013,03,17,03,04,-10.60
2013,03,17,03,05,-10.70
2013,03,17,03,06,-10.70
2013,03,17,03,07,-10.70
2013,03,17,03,08,-10.70
2013,03,17,03,09,-10.80
2013,03,17,03,10,-10.80
2013,03,17,03,11,-10.70
2013,03,17,03,12,-10.60
2013,03,17,03,13,-10.60
2013,03,17,03,14,-10.50
2013,03,17,03,15,-10.50
2013,03,17,03,16,-10.60
2013,03,17,03,17,-10.60
2013,03,17,03,18,-10.60
2013,03,17,03,19,-10.60
2013,03,17,03,20,-10.70
2013,03,17,03,21,-10.70
2013,03,17,03,22,-10.70
2013,03,17,03,23,-10.80
2013,03,17,03,24,-10.80
2013,03,17,03,25,-10.80
2013,03,17,03,26,-10.80
2013,03,17,03,27,-10.80
2013,03,17,03,28,-10.80
2013,03,17,03,29,-10.80
2013,03,17,03,30,-10.80
2013,03,17,03,31,-10.80
2013,03,17,03,32,-10.80
2013,03,17,03,33,-10.80
2013,03,17,03,34,-10.90
2013,03,17,03,35,-11.00
2013,03,17,03,36,-11.10
2013,03,17,03,37,-11.20
2013,03,17,03,38,-11.20
2013,03,17,03,39,-11.30
2013,03,17,03,40,-11.50
2013,03,17,03,41,-11.50
2013,03,17,03,42,-11.60
2013,03,17,03,43,-11.60
2013,03,17,03,44,-11.60
2013,03,17,03,45,-11.60
2013,03,17,03,46,-11.60
2013,03,17,03,47,-11.60
2013,03,17,03,48,-11.60
2013,03,17,03,49,-11.60
2013,03,17,03,50,-11.60
2013,03,17,03,51,-11.70
2013,03,17,03,52,-11.70
2013,03,17,03,53,-11.70
2013,03,17,03,54,-11.80
2013,03,17,03,55,-11.80
2013,03,17,03,56,-11.80
2013,03,17,03,57,-11.90
2013,03,17,03,58,-12.00
2013,03,17,03,59,-12.00
2013,03,17,04,00,-12.00
2013,03,17,04,01,-12.10
2013,03,17,04,02,-12.10
2013,03,17,04,03,-12.10
2013,03,17,04,04,-12.20
2013,03,17,04,05,-12.20
2013,03,17,04,06,-12.20
2013,03,17,04,07,-12.30
2013,03,17,04,08,-12.30
2013,03,17,04,09,-12.30
2013,03,17,04,10,-12.40
2013,03,17,04,11,-12.40
2013,03,17,04,12,-12.50
2013,03,17,04,13,-12.50
2013,03,17,04,14,-12.50
2013,03,17,04,15,-12.60
2013,03,17,04,16,-12.60
2013,03,17,04,17,-12.60
2013,03,17,04,18,-12.60
2013,03,17,04,19,-12.60
2013,03,17,04,20,-12.60
2013,03,17,04,21,-12.60
2013,03,17,04,22,-12.70
2013,03,17,04,23,-12.70
2013,03,17,04,24,-12.70
2013,03,17,04,25,-12.70
2013,03,17,04,26,-12.70
2013,03,17,04,27,-12.80
2013,03,17,04,28,-12.80
2013,03,17,04,29,-12.80
2013,03,17,04,30,-12.90
2013,03,17,04,31,-12.90
2013,03,17,04,32,-12.90
2013,03,17,04,33,-12.90
2013,03,17,04,34,-12.90
2013,03,17,04,35,-13.00
2013,03,17,04,36,-13.00
2013,03,17,04,37,-13.00
2013,03,17,04,38,-13.00
2013,03,17,04,39,-13.00
2013,03,17,04,40,-13.10
2013,03,17,04,41,-13.10
2013,03,17,04,42,-13.10
2013,03,17,04,43,-13.10
2013,03,17,04,44,-13.20
2013,03,17,04,45,-13.20
2013,03,17,04,46,-13.30
2013,03,17,04,47,-13.30
2013,03,17,04,48,-13.30
2013,03,17,04,49,-13.30
2013,03,17,04,50,-13.40
2013,03,17,04,51,-13.40
2013,03,17,04,52,-13.40
2013,03,17,04,53,-13.50
2013,03,17,04,54,-13.50
2013,03,17,04,55,-13.50
2013,03,17,04,56,-13.50
2013,03,17,04,57,-13.60
2013,03,17,04,58,-13.60
2013,03,17,04,59,-13.60
2013,03,17,05,00,-13.70
2013,03,17,05,01,-13.80
2013,03,17,05,02,-13.80
2013,03,17,05,03,-13.90
2013,03,17,05,04,-13.90
2013,03,17,05,05,-14.00
2013,03,17,05,06,-14.00
2013,03,17,05,07,-14.00
2013,03,17,05,08,-14.10
2013,03,17,05,09,-14.10
2013,03,17,05,10,-14.20
2013,03,17,05,11,-14.20
2013,03,17,05,12,-14.20
2013,03,17,05,13,-14.30
2013,03,17,05,14,-14.30
2013,03,17,05,15,-14.30
2013,03,17,05,16,-14.40
2013,03,17,05,17,-14.40
2013,03,17,05,18,-14.40
2013,03,17,05,19,-14.40
2013,03,17,05,20,-14.40
2013,03,17,05,21,-14.40
2013,03,17,05,22,-14.50
2013,03,17,05,23,-14.50
2013,03,17,05,24,-14.60
2013,03,17,05,25,-14.60
2013,03,17,05,26,-14.70
2013,03,17,05,27,-14.70
2013,03,17,05,28,-14.80
2013,03,17,05,29,-14.80
2013,03,17,05,30,-14.90
2013,03,17,05,31,-14.90
2013,03,17,05,32,-15.00
2013,03,17,05,33,-15.00
2013,03,17,05,34,-15.10
2013,03,17,05,35,-15.10
2013,03,17,05,36,-15.10
2013,03,17,05,37,-15.20
2013,03,17,05,38,-15.20
2013,03,17,05,39,-15.20
2013,03,17,05,40,-15.30
2013,03,17,05,41,-15.30
2013,03,17,05,42,-15.30
2013,03,17,05,43,-15.30
2013,03,17,05,44,-15.40
2013,03,17,05,45,-15.40
2013,03,17,05,46,-15.40
2013,03,17,05,47,-15.40
2013,03,17,05,48,-15.40
2013,03,17,05,49,-15.50
2013,03,17,05,50,-15.50
2013,03,17,05,51,-15.50
2013,03,17,05,52,-15.60
2013,03,17,05,53,-15.60
2013,03,17,05,54,-15.70
2013,03,17,05,55,-15.70
2013,03,17,05,56,-15.80
2013,03,17,05,57,-15.90
2013,03,17,05,58,-16.00
2013,03,17,05,59,-16.00
2013,03,17,06,00,-16.10
2013,03,17,06,01,-16.10
2013,03,17,06,02,-16.20
2013,03,17,06,03,-16.20
2013,03,17,06,04,-16.20
2013,03,17,06,05,-16.30
2013,03,17,06,06,-16.30
2013,03,17,06,07,-16.30
2013,03,17,06,08,-16.30
2013,03,17,06,09,-16.30
2013,03,17,06,10,-16.30
2013,03,17,06,11,-16.30
2013,03,17,06,12,-16.30
2013,03,17,06,13,-16.40
2013,03,17,06,14,-16.40
2013,03,17,06,15,-16.40
2013,03,17,06,16,-16.40
2013,03,17,06,17,-16.40
2013,03,17,06,18,-16.50
2013,03,17,06,19,-16.50
2013,03,17,06,20,-16.50
2013,03,17,06,21,-16.50
2013,03,17,06,22,-16.50
2013,03,17,06,23,-16.50
2013,03,17,06,24,-16.50
2013,03,17,06,25,-16.50
2013,03,17,06,26,-16.50
2013,03,17,06,27,-16.50
2013,03,17,06,28,-16.50
2013,03,17,06,29,-16.50
2013,03,17,06,30,-16.50
2013,03,17,06,31,-16.50
2013,03,17,06,32,-16.50
2013,03,17,06,33,-16.50
2013,03,17,06,34,-16.50
2013,03,17,06,35,-16.50
2013,03,17,06,36,-16.50
2013,03,17,06,37,-16.50
2013,03,17,06,38,-16.50
2013,03,17,06,39,-16.50
2013,03,17,06,40,-16.50
2013,03,17,06,41,-16.60
2013,03,17,06,42,-16.60
2013,03,17,06,43,-16.60
2013,03,17,06,44,-16.60
2013,03,17,06,45,-16.70
2013,03,17,06,46,-16.70
2013,03,17,06,47,-16.70
2013,03,17,06,48,-16.70
2013,03,17,06,49,-16.80
2013,03,17,06,50,-16.80
2013,03,17,06,51,-16.90
2013,03,17,06,52,-16.90
2013,03,17,06,53,-16.90
2013,03,17,06,54,-16.90
2013,03,17,06,55,-16.90
2013,03,17,06,56,-17.00
2013,03,17,06,57,-17.00
2013,03,17,06,58,-17.00
2013,03,17,06,59,-17.00
2013,03,17,07,00,-17.00
2013,03,17,07,01,-17.10
2013,03,17,07,02,-17.10
2013,03,17,07,03,-17.10
2013,03,17,07,04,-17.20
2013,03,17,07,05,-17.20
2013,03,17,07,06,-17.20
2013,03,17,07,07,-17.30
2013,03,17,07,08,-17.30
2013,03,17,07,09,-17.40
2013,03,17,07,10,-17.40
2013,03,17,07,11,-17.40
2013,03,17,07,12,-17.40
2013,03,17,07,13,-17.40
2013,03,17,07,14,-17.50
2013,03,17,07,15,-17.50
2013,03,17,07,16,-17.50
2013,03,17,07,17,-17.50
2013,03,17,07,18,-17.50
2013,03,17,07,19,-17.60
2013,03,17,07,20,-17.60
2013,03,17,07,21,-17.60
2013,03,17,07,22,-17.60
2013,03,17,07,23,-17.60
2013,03,17,07,24,-17.60
2013,03,17,07,25,-17.60
2013,03,17,07,26,-17.60
2013,03,17,07,27,-17.60
2013,03,17,07,28,-17.60
2013,03,17,07,29,-17.60
2013,03,17,07,30,-17.60
2013,03,17,07,31,-17.60
2013,03,17,07,32,-17.60
2013,03,17,07,33,-17.60
2013,03,17,07,34,-17.60
2013,03,17,07,35,-17.60
2013,03,17,07,36,-17.60
2013,03,17,07,37,-17.70
2013,03,17,07,38,-17.70
2013,03,17,07,39,-17.70
2013,03,17,07,40,-17.70
2013,03,17,07,41,-17.70
2013,03,17,07,42,-17.70
2013,03,17,07,43,-17.70
2013,03,17,07,44,-17.60
2013,03,17,07,45,-17.60
2013,03,17,07,46,-17.60
2013,03,17,07,47,-17.60
2013,03,17,07,48,-17.50
2013,03,17,07,49,-17.50
2013,03,17,07,50,-17.50
2013,03,17,07,51,-17.50
2013,03,17,07,52,-17.50
2013,03,17,07,53,-17.50
2013,03,17,07,54,-17.50
2013,03,17,07,55,-17.50
2013,03,17,07,56,-17.60
2013,03,17,07,57,-17.60
2013,03,17,07,58,-17.60
2013,03,17,07,59,-17.60
2013,03,17,08,00,-17.70
2013,03,17,08,01,-17.70
2013,03,17,08,02,-17.70
2013,03,17,08,03,-17.80
2013,03,17,08,04,-17.80
2013,03,17,08,05,-17.80
2013,03,17,08,06,-17.80
2013,03,17,08,07,-17.90
2013,03,17,08,08,-17.90
2013,03,17,08,09,-17.90
2013,03,17,08,10,-17.90
2013,03,17,08,11,-18.00
2013,03,17,08,12,-18.00
2013,03,17,08,13,-18.00
2013,03,17,08,14,-18.00
2013,03,17,08,15,-18.00
2013,03,17,08,16,-18.10
2013,03,17,08,17,-18.10
2013,03,17,08,18,-18.10
2013,03,17,08,19,-18.10
2013,03,17,08,20,-18.10
2013,03,17,08,21,-18.10
2013,03,17,08,22,-18.10
2013,03,17,08,23,-18.10
2013,03,17,08,24,-18.10
2013,03,17,08,25,-18.10
2013,03,17,08,26,-18.10
2013,03,17,08,27,-18.10
2013,03,17,08,28,-18.10
2013,03,17,08,29,-18.10
2013,03,17,08,30,-18.10
2013,03,17,08,31,-18.00
2013,03,17,08,32,-18.00
2013,03,17,08,33,-18.00
2013,03,17,08,34,-18.00
2013,03,17,08,35,-18.00
2013,03,17,08,36,-18.00
2013,03,17,08,37,-18.00
2013,03,17,08,38,-18.00
2013,03,17,08,39,-18.00
2013,03,17,08,40,-18.00
2013,03,17,08,41,-18.10
2013,03,17,08,42,-18.10
2013,03,17,08,43,-18.10
2013,03,17,08,44,-18.10
2013,03,17,08,45,-18.10
2013,03,17,08,46,-18.10
2013,03,17,08,47,-18.20
2013,03,17,08,48,-18.20
2013,03,17,08,49,-18.20
2013,03,17,08,50,-18.30
2013,03,17,08,51,-18.30
2013,03,17,08,52,-18.30
2013,03,17,08,53,-18.30
2013,03,17,08,54,-18.40
2013,03,17,08,55,-18.40
2013,03,17,08,56,-18.50
2013,03,17,08,57,-18.50
2013,03,17,08,58,-18.60
2013,03,17,08,59,-18.70
2013,03,17,09,00,-18.70
2013,03,17,09,01,-18.80
2013,03,17,09,02,-18.80
2013,03,17,09,03,-18.80
2013,03,17,09,04,-18.90
2013,03,17,09,05,-18.90
2013,03,17,09,06,-18.90
2013,03,17,09,07,-18.90
2013,03,17,09,08,-18.90
2013,03,17,09,09,-19.00
2013,03,17,09,10,-19.00
2013,03,17,09,11,-19.00
2013,03,17,09,12,-19.00
2013,03,17,09,13,-19.00
2013,03,17,09,14,-19.00
2013,03,17,09,15,-19.00
2013,03,17,09,16,-19.10
2013,03,17,09,17,-19.10
2013,03,17,09,18,-19.00
2013,03,17,09,19,-19.00
2013,03,17,09,20,-19.00
2013,03,17,09,21,-19.00
2013,03,17,09,22,-19.00
2013,03,17,09,23,-19.00
2013,03,17,09,24,-19.00
2013,03,17,09,25,-19.00
2013,03,17,09,26,-19.00
2013,03,17,09,27,-19.00
2013,03,17,09,28,-19.00
2013,03,17,09,29,-19.00
2013,03,17,09,30,-19.00
2013,03,17,09,31,-19.00
2013,03,17,09,32,-19.00
2013,03,17,09,33,-19.00
2013,03,17,09,34,-19.00
2013,03,17,09,35,-19.00
2013,03,17,09,36,-19.00
2013,03,17,09,37,-19.00
2013,03,17,09,38,-19.00
2013,03,17,09,39,-19.00
2013,03,17,09,40,-19.00
2013,03,17,09,41,-19.00
2013,03,17,09,42,-18.90
2013,03,17,09,43,-18.90
2013,03,17,09,44,-18.90
2013,03,17,09,45,-19.00
2013,03,17,09,46,-19.00
2013,03,17,09,47,-18.90
2013,03,17,09,48,-19.00
2013,03,17,09,49,-19.00
2013,03,17,09,50,-19.00
2013,03,17,09,51,-18.90
2013,03,17,09,52,-18.90
2013,03,17,09,53,-18.90
2013,03,17,09,54,-18.90
2013,03,17,09,55,-18.90
2013,03,17,09,56,-18.90
2013,03,17,09,57,-18.90
2013,03,17,09,58,-18.90
2013,03,17,09,59,-18.80
2013,03,17,10,00,-18.80
2013,03,17,10,01,-18.80
2013,03,17,10,02,-18.80
2013,03,17,10,03,-18.80
2013,03,17,10,04,-18.70
2013,03,17,10,05,-18.70
2013,03,17,10,06,-18.70
2013,03,17,10,07,-18.70
2013,03,17,10,08,-18.60
2013,03,17,10,09,-18.60
2013,03,17,10,10,-18.60
2013,03,17,10,11,-18.50
2013,03,17,10,12,-18.50
2013,03,17,10,13,-18.40
2013,03,17,10,14,-18.40
2013,03,17,10,15,-18.30
2013,03,17,10,16,-18.30
2013,03,17,10,17,-18.30
2013,03,17,10,18,-18.20
2013,03,17,10,19,-18.20
2013,03,17,10,20,-18.10
2013,03,17,10,21,-18.10
2013,03,17,10,22,-18.10
2013,03,17,10,23,-18.10
2013,03,17,10,24,-18.00
2013,03,17,10,25,-18.00
2013,03,17,10,26,-18.00
2013,03,17,10,27,-18.00
2013,03,17,10,28,-18.00
2013,03,17,10,29,-17.90
2013,03,17,10,30,-17.90
2013,03,17,10,31,-17.90
2013,03,17,10,32,-17.90
2013,03,17,10,33,-17.90
2013,03,17,10,34,-17.80
2013,03,17,10,35,-17.80
2013,03,17,10,36,-17.80
2013,03,17,10,37,-17.70
2013,03,17,10,38,-17.70
2013,03,17,10,39,-17.70
2013,03,17,10,40,-17.60
2013,03,17,10,41,-17.60
2013,03,17,10,42,-17.60
2013,03,17,10,43,-17.50
2013,03,17,10,44,-17.50
2013,03,17,10,45,-17.40
2013,03,17,10,46,-17.40
2013,03,17,10,47,-17.30
2013,03,17,10,48,-17.30
2013,03,17,10,49,-17.20
2013,03,17,10,50,-17.20
2013,03,17,10,51,-17.10
2013,03,17,10,52,-17.10
2013,03,17,10,53,-17.00
2013,03,17,10,54,-16.90
2013,03,17,10,55,-16.90
2013,03,17,10,56,-16.80
2013,03,17,10,57,-16.70
2013,03,17,10,58,-16.70
2013,03,17,10,59,-16.60
2013,03,17,11,00,-16.60
2013,03,17,11,01,-16.50
2013,03,17,11,02,-16.40
2013,03,17,11,03,-16.30
2013,03,17,11,04,-16.20
2013,03,17,11,05,-16.20
2013,03,17,11,06,-16.10
2013,03,17,11,07,-16.00
2013,03,17,11,08,-15.90
2013,03,17,11,09,-15.80
2013,03,17,11,10,-15.60
2013,03,17,11,11,-15.50
2013,03,17,11,12,-15.30
2013,03,17,11,13,-15.10
2013,03,17,11,14,-15.00
2013,03,17,11,15,-14.80
2013,03,17,11,16,-14.60
2013,03,17,11,17,-14.40
2013,03,17,11,18,-14.20
2013,03,17,11,19,-14.10
2013,03,17,11,20,-13.90
2013,03,17,11,21,-13.80
2013,03,17,11,22,-13.80
2013,03,17,11,23,-13.70
2013,03,17,11,24,-13.60
2013,03,17,11,25,-13.50
2013,03,17,11,26,-13.40
2013,03,17,11,27,-13.20
2013,03,17,11,28,-13.10
2013,03,17,11,29,-12.90
2013,03,17,11,30,-12.80
2013,03,17,11,31,-12.60
2013,03,17,11,32,-12.50
2013,03,17,11,33,-12.30
2013,03,17,11,34,-12.20
2013,03,17,11,35,-12.00
2013,03,17,11,36,-11.90
2013,03,17,11,37,-11.70
2013,03,17,11,38,-11.60
2013,03,17,11,39,-11.50
2013,03,17,11,40,-11.30
2013,03,17,11,41,-11.20
2013,03,17,11,42,-11.10
2013,03,17,11,43,-10.90
2013,03,17,11,44,-10.80
2013,03,17,11,45,-10.70
2013,03,17,11,46,-10.60
2013,03,17,11,47,-10.40
2013,03,17,11,48,-10.20
2013,03,17,11,49,-10.10
2013,03,17,11,50,-10.00
2013,03,17,11,51,-9.90
2013,03,17,11,52,-9.90
2013,03,17,11,53,-9.80
2013,03,17,11,54,-9.80
2013,03,17,11,55,-9.70
2013,03,17,11,56,-9.70
2013,03,17,11,57,-9.60
2013,03,17,11,58,-9.50
2013,03,17,11,59,-9.40
2013,03,17,12,00,-9.40
2013,03,17,12,01,-9.30
2013,03,17,12,02,-9.10
2013,03,17,12,03,-9.00
2013,03,17,12,04,-8.90
2013,03,17,12,05,-8.90
2013,03,17,12,06,-8.80
2013,03,17,12,07,-8.60
2013,03,17,12,08,-8.50
2013,03,17,12,09,-8.50
2013,03,17,12,10,-8.40
2013,03,17,12,11,-8.30
2013,03,17,12,12,-8.20
2013,03,17,12,13,-8.10
2013,03,17,12,14,-8.00
2013,03,17,12,15,-8.00
2013,03,17,12,16,-7.80
2013,03,17,12,17,-7.60
2013,03,17,12,18,-7.50
2013,03,17,12,19,-7.40
2013,03,17,12,20,-7.30
2013,03,17,12,21,-7.20
2013,03,17,12,22,-7.10
2013,03,17,12,23,-7.00
2013,03,17,12,24,-6.90
2013,03,17,12,25,-6.70
2013,03,17,12,26,-6.60
2013,03,17,12,27,-6.40
2013,03,17,12,28,-6.20
2013,03,17,12,29,-6.00
2013,03,17,12,30,-5.80
2013,03,17,12,31,-5.60
2013,03,17,12,32,-5.50
2013,03,17,12,33,-5.30
2013,03,17,12,34,-5.10
2013,03,17,12,35,-4.90
2013,03,17,12,36,-4.80
2013,03,17,12,37,-4.60
2013,03,17,12,38,-4.60
2013,03,17,12,39,-4.50
2013,03,17,12,40,-4.40
2013,03,17,12,41,-4.30
2013,03,17,12,42,-4.10
2013,03,17,12,43,-4.00
2013,03,17,12,44,-4.00
2013,03,17,12,45,-4.00
2013,03,17,12,46,-3.90
2013,03,17,12,47,-3.90
2013,03,17,12,48,-3.90
2013,03,17,12,49,-3.80
2013,03,17,12,50,-3.80
2013,03,17,12,51,-3.70
2013,03,17,12,52,-3.70
2013,03,17,12,53,-3.70
2013,03,17,12,54,-3.70
2013,03,17,12,55,-3.70
2013,03,17,12,56,-3.60
2013,03,17,12,57,-3.60
2013,03,17,12,58,-3.50
2013,03,17,12,59,-3.40
2013,03,17,13,00,-3.20
2013,03,17,13,01,-3.20
2013,03,17,13,02,-3.10
2013,03,17,13,03,-3.00
2013,03,17,13,04,-3.00
2013,03,17,13,05,-3.00
2013,03,17,13,06,-3.00
2013,03,17,13,07,-2.90
2013,03,17,13,08,-2.90
2013,03,17,13,09,-2.90
2013,03,17,13,10,-3.00
2013,03,17,13,11,-3.00
2013,03,17,13,12,-3.00
2013,03,17,13,13,-3.00
2013,03,17,13,14,-3.00
2013,03,17,13,15,-2.90
2013,03,17,13,16,-2.90
2013,03,17,13,17,-2.80
2013,03,17,13,18,-2.70
2013,03,17,13,19,-2.70
2013,03,17,13,20,-2.60
2013,03,17,13,21,-2.50
2013,03,17,13,22,-2.50
2013,03,17,13,23,-2.40
2013,03,17,13,24,-2.30
2013,03,17,13,25,-2.20
2013,03,17,13,26,-2.10
2013,03,17,13,27,-2.10
2013,03,17,13,28,-2.00
2013,03,17,13,29,-1.80
2013,03,17,13,30,-1.70
2013,03,17,13,31,-1.60
2013,03,17,13,32,-1.50
2013,03,17,13,33,-1.40
2013,03,17,13,34,-1.30
2013,03,17,13,35,-1.20
2013,03,17,13,36,-1.20
2013,03,17,13,37,-1.10
2013,03,17,13,38,-1.00
2013,03,17,13,39,-1.00
2013,03,17,13,40,-0.90
2013,03,17,13,41,-0.90
2013,03,17,13,42,-0.80
2013,03,17,13,43,-0.80
2013,03,17,13,44,-0.70
2013,03,17,13,45,-0.70
2013,03,17,13,46,-0.70
2013,03,17,13,47,-0.60
2013,03,17,13,48,-0.50
2013,03,17,13,49,-0.50
2013,03,17,13,50,-0.30
2013,03,17,13,51,-0.20
2013,03,17,13,52,-11.40
2013,03,17,13,53,-17.70
2013,03,17,13,54,-17.70
2013,03,17,13,55,-17.60
2013,03,17,13,56,-17.50
2013,03,17,13,57,-17.40
2013,03,17,13,58,-17.30
2013,03,17,13,59,-17.30
2013,03,17,14,00,-17.20
2013,03,17,14,01,-17.20
2013,03,17,14,02,-17.20
2013,03,17,14,03,-17.10
2013,03,17,14,04,-17.00
2013,03,17,14,05,-17.00
2013,03,17,14,06,-17.00
2013,03,17,14,07,-16.90
2013,03,17,14,08,-16.90
2013,03,17,14,09,-16.90
2013,03,17,14,10,-16.80
2013,03,17,14,11,-16.80
2013,03,17,14,12,-16.80
2013,03,17,14,13,-16.70
2013,03,17,14,14,-16.70
2013,03,17,14,15,-16.60
2013,03,17,14,16,-16.60
2013,03,17,14,17,-16.50
2013,03,17,14,18,-16.50
2013,03,17,14,19,-16.40
2013,03,17,14,20,-16.30
2013,03,17,14,21,-16.20
2013,03,17,14,22,-16.20
2013,03,17,14,23,-16.10
2013,03,17,14,24,-16.00
2013,03,17,14,25,-15.90
2013,03,17,14,26,-15.80
2013,03,17,14,27,-15.80
2013,03,17,14,28,-15.80
2013,03,17,14,29,-15.70
2013,03,17,14,30,-15.60
2013,03,17,14,31,-15.50
2013,03,17,14,32,-15.40
2013,03,17,14,33,-15.30
2013,03,17,14,34,-15.30
2013,03,17,14,35,-15.20
2013,03,17,14,36,-15.20
2013,03,17,14,37,-15.10
2013,03,17,14,38,-15.10
2013,03,17,14,39,-15.00
2013,03,17,14,40,-14.90
2013,03,17,14,41,-14.90
2013,03,17,14,42,-14.90
2013,03,17,14,43,-14.80
2013,03,17,14,44,-14.80
2013,03,17,14,45,-14.80
2013,03,17,14,46,-14.80
2013,03,17,14,47,-14.80
2013,03,17,14,48,-14.80
2013,03,17,14,49,-14.80
2013,03,17,14,50,-14.80
2013,03,17,14,51,-14.70
2013,03,17,14,52,-14.70
2013,03,17,14,53,-14.60
2013,03,17,14,54,-14.60
2013,03,17,14,55,-14.50
2013,03,17,14,56,-14.50
2013,03,17,14,57,-14.40
2013,03,17,14,58,-14.40
2013,03,17,14,59,-14.30
2013,03,17,15,00,-14.20
2013,03,17,15,01,-14.20
2013,03,17,15,02,-14.10
2013,03,17,15,03,-14.00
2013,03,17,15,04,-13.90
2013,03,17,15,05,-13.90
2013,03,17,15,06,-13.80
2013,03,17,15,07,-13.70
2013,03,17,15,08,-13.50
2013,03,17,15,09,-13.40
2013,03,17,15,10,-13.30
2013,03,17,15,11,-13.20
2013,03,17,15,12,-13.10
2013,03,17,15,13,-13.00
2013,03,17,15,14,-12.80
2013,03,17,15,15,-12.70
2013,03,17,15,16,-12.60
2013,03,17,15,17,-12.50
2013,03,17,15,18,-12.50
2013,03,17,15,19,-12.40
2013,03,17,15,20,-12.40
2013,03,17,15,21,-12.30
2013,03,17,15,22,-12.30
2013,03,17,15,23,-12.30
2013,03,17,15,24,-12.20
2013,03,17,15,25,-12.20
2013,03,17,15,26,-12.20
2013,03,17,15,27,-12.20
2013,03,17,15,28,-12.30
2013,03,17,15,29,-12.30
2013,03,17,15,30,-12.30
2013,03,17,15,31,-12.30
2013,03,17,15,32,-12.40
2013,03,17,15,33,-12.40
2013,03,17,15,34,-12.40
2013,03,17,15,35,-12.30
2013,03,17,15,36,-12.30
2013,03,17,15,37,-12.30
2013,03,17,15,38,-12.30
2013,03,17,15,39,-12.30
2013,03,17,15,40,-12.30
2013,03,17,15,41,-12.30
2013,03,17,15,42,-12.30
2013,03,17,15,43,-12.30
2013,03,17,15,44,-12.20
2013,03,17,15,45,-12.20
2013,03,17,15,46,-12.20
2013,03,17,15,47,-12.20
2013,03,17,15,48,-12.10
2013,03,17,15,49,-12.20
2013,03,17,15,50,-12.20
2013,03,17,15,51,-12.20
2013,03,17,15,52,-12.20
2013,03,17,15,53,-12.20
2013,03,17,15,54,-12.20
2013,03,17,15,55,-12.20
2013,03,17,15,56,-12.20
2013,03,17,15,57,-12.10
2013,03,17,15,58,-12.10
2013,03,17,15,59,-12.10
2013,03,17,16,00,-12.10
2013,03,17,16,01,-12.10
2013,03,17,16,02,-12.00
2013,03,17,16,03,-12.00
2013,03,17,16,04,-12.00
2013,03,17,16,05,-11.90
2013,03,17,16,06,-11.90
2013,03,17,16,07,-11.90
2013,03,17,16,08,-11.90
2013,03,17,16,09,-11.80
2013,03,17,16,10,-11.80
2013,03,17,16,11,-11.80
2013,03,17,16,12,-11.70
2013,03,17,16,13,-11.70
2013,03,17,16,14,-11.70
2013,03,17,16,15,-11.70
2013,03,17,16,16,-11.60
2013,03,17,16,17,-11.60
2013,03,17,16,18,-11.60
2013,03,17,16,19,-11.50
2013,03,17,16,20,-11.40
2013,03,17,16,21,-11.40
2013,03,17,16,22,-11.40
2013,03,17,16,23,-11.40
2013,03,17,16,24,-11.30
2013,03,17,16,25,-11.30
2013,03,17,16,26,-11.30
2013,03,17,16,27,-11.20
2013,03,17,16,28,-11.20
2013,03,17,16,29,-11.10
2013,03,17,16,30,-11.10
2013,03,17,16,31,-11.00
2013,03,17,16,32,-10.90
2013,03,17,16,33,-10.90
2013,03,17,16,34,-10.80
2013,03,17,16,35,-10.70
2013,03,17,16,36,-10.70
2013,03,17,16,37,-10.60
2013,03,17,16,38,-10.60
2013,03,17,16,39,-10.60
2013,03,17,16,40,-10.60
2013,03,17,16,41,-10.60
2013,03,17,16,42,-10.60
2013,03,17,16,43,-10.60
2013,03,17,16,44,-10.70
2013,03,17,16,45,-10.70
2013,03,17,16,46,-10.70
2013,03,17,16,47,-10.70